Theta_e
315 317 317 318 318 317 317 316 316 318 319 318 321 325 324 323 320 317 317 312 309 316 319 316 318 318 319 318 313 312 313 310 311 312 314 316 316 315 315 315 315 314 314 314 314 315 316 316 316 316 316 317 317 317 317 317 317 317 317 317 317 317 317 318 320 321 322 322 322 321 320 318 317 319 321 321 321 321 321 324 326 326 328 330 330 329
315 318 318 319 316 315 316 316 316 317 318 318 320 323 320 319 320 315 315 316 311 314 319 316 318 319 318 317 312 311 312 311 311 312 313 314 314 315 315 313 313 314 313 314 314 314 315 315 316 316 316 316 317 317 317 317 317 317 317 317 317 317 318 318 319 320 321 321 321 320 319 318 317 317 319 319 320 321 321 321 323 325 327 328 331 332
316 319 319 315 310 311 313 315 319 321 323 322 320 321 321 318 319 316 315 318 314 314 321 321 321 320 317 317 313 310 311 313 313 312 312 313 313 314 313 312 312 313 314 314 315 315 314 315 315 316 316 316 317 317 317 317 317 317 317 317 317 317 317 318 319 320 321 321 321 321 320 319 318 317 318 319 319 320 321 321 321 322 324 326 328 330
317 320 317 309 306 312 315 315 319 321 322 323 321 320 321 318 319 319 317 318 315 313 319 321 319 317 316 317 316 311 310 312 312 313 313 313 314 315 314 312 313 314 315 315 315 315 315 316 316 316 316 317 317 317 317 317 317 317 317 317 317 317 317 318 319 320 320 321 321 321 321 320 319 319 318 318 319 319 320 320 321 320 321 322 323 324
319 316 309 307 310 316 316 315 318 319 317 319 327 330 327 323 322 320 317 317 316 314 317 317 316 323 324 323 325 318 310 310 312 313 315 315 315 316 315 314 315 316 315 316 315 315 315 316 317 317 317 317 317 318 318 318 318 318 317 318 317 317 318 318 318 319 319 320 320 320 320 320 319 319 318 317 317 317 317 318 320 320 321 321 321 322
316 310 308 312 316 318 318 317 318 321 317 315 324 330 327 330 327 321 320 319 318 316 314 312 315 331 335 327 328 325 315 313 312 309 312 315 314 312 315 315 316 316 316 316 316 315 316 316 317 317 318 318 318 318 318 318 318 318 318 318 318 318 318 318 318 318 319 319 319 319 319 318 318 317 317 316 315 314 315 315 316 318 320 322 323 324
314 310 313 319 321 319 317 317 316 319 320 315 318 320 323 331 327 322 319 316 319 316 310 311 314 322 326 322 322 321 318 318 315 309 310 313 312 310 312 314 316 317 316 316 317 317 317 318 318 318 318 318 318 318 318 318 318 318 318 318 318 318 317 318 318 318 318 318 318 318 318 317 317 316 315 315 314 314 313 313 314 316 318 320 322 323
315 315 316 321 325 321 318 318 316 318 320 315 316 319 325 329 326 326 324 320 322 316 314 319 319 316 319 320 320 318 319 321 321 320 315 310 310 311 312 315 316 316 317 318 318 318 318 318 318 318 318 318 318 318 318 318 318 317 318 317 317 317 317 317 317 317 317 317 317 316 316 316 316 315 315 314 314 313 313 312 312 313 315 318 320 322
314 320 319 321 326 321 320 320 316 321 325 318 315 319 324 326 327 330 331 329 322 313 318 324 316 315 323 326 323 316 316 320 322 325 317 309 311 313 313 316 317 317 318 319 318 318 318 318 318 318 318 318 317 318 317 317 318 317 317 317 317 317 317 316 316 316 316 316 316 315 315 315 315 314 314 314 313 313 313 312 312 312 312 314 316 318
313 317 316 319 323 320 320 318 314 323 327 316 312 317 319 322 326 328 329 327 317 313 323 325 313 313 321 329 327 316 315 321 323 324 315 308 312 314 315 316 317 318 319 318 318 318 318 318 318 318 318 318 318 317 317 317 317 317 317 317 317 316 316 316 316 316 316 315 315 315 315 315 314 314 314 314 313 313 313 313 312 312 311 312 313 315
312 312 312 314 317 316 316 314 312 317 316 311 317 322 320 324 327 328 329 322 313 317 325 321 314 313 315 325 329 319 318 322 321 323 318 311 312 315 316 317 317 319 318 318 318 317 318 318 318 318 318 318 318 317 318 317 317 317 317 317 316 316 316 316 316 315 315 315 315 315 315 314 314 314 314 313 313 313 313 313 313 312 312 311 311 312
314 315 314 313 312 312 315 317 313 311 310 314 325 325 320 324 325 325 329 321 315 323 322 316 315 313 313 324 331 323 321 320 317 321 323 315 313 316 318 318 319 319 317 317 318 317 318 318 318 318 318 317 318 318 317 317 317 317 317 317 317 317 316 316 316 315 315 315 315 315 314 314 314 314 314 313 313 313 313 313 312 312 312 312 311 311
318 318 314 312 312 312 320 323 316 314 317 319 324 323 319 322 320 321 327 321 319 321 315 314 317 314 315 321 323 323 322 320 313 313 317 313 312 317 320 319 318 318 317 317 318 318 318 318 317 317 317 317 317 317 317 317 317 318 317 318 317 317 317 316 316 316 315 315 315 315 314 314 314 313 313 313 313 313 313 313 312 312 312 312 311 310
321 321 316 315 315 313 317 322 319 319 321 319 319 321 321 321 317 320 324 317 317 320 314 313 316 317 319 317 317 321 317 314 310 308 312 313 312 316 319 320 318 317 317 317 318 318 317 317 317 317 317 317 317 317 317 317 317 318 318 317 317 318 317 317 317 316 316 316 315 314 314 314 314 313 313 313 313 313 312 312 312 312 312 311 311 311
320 321 320 318 317 315 316 318 321 323 319 317 317 317 318 324 324 323 324 320 320 322 316 313 316 323 324 315 314 314 309 309 312 311 312 313 314 315 317 320 319 317 317 317 317 317 317 317 316 317 317 316 317 317 317 317 317 317 317 317 317 317 317 317 317 317 317 316 315 315 315 314 314 314 313 313 313 313 313 312 312 312 311 311 311 311
316 318 319 314 311 315 317 314 316 321 319 316 314 313 315 322 325 320 315 317 319 319 317 315 319 326 322 314 313 310 308 311 311 311 313 314 314 314 315 319 319 318 318 317 318 317 316 317 316 316 316 316 317 317 317 317 317 317 317 317 317 317 317 317 317 317 317 317 316 316 315 315 314 314 314 313 313 312 312 312 312 311 311 311 311 310
315 316 315 313 311 313 314 311 311 315 318 316 314 317 318 316 323 320 310 310 313 314 317 316 319 322 317 314 317 314 314 315 312 310 312 314 315 314 314 317 319 319 317 317 318 317 317 317 316 316 316 316 317 316 317 317 316 316 316 316 317 316 316 317 317 317 317 317 317 316 316 315 314 314 314 313 313 312 312 312 311 311 311 310 310 310
319 318 314 315 316 311 309 310 310 309 314 319 319 319 315 310 318 321 315 317 318 316 318 316 315 319 316 316 321 316 314 317 317 315 312 312 313 313 314 316 318 318 316 317 317 316 317 317 316 317 316 316 317 316 316 317 316 317 316 316 316 316 317 317 317 317 316 317 316 316 316 315 314 314 314 313 313 312 312 312 311 311 311 310 310 310
319 319 314 313 316 313 311 314 315 311 311 317 318 314 315 317 319 317 315 320 320 316 321 321 314 314 314 317 322 317 316 321 320 317 316 314 312 311 312 314 315 316 316 317 317 316 317 316 316 316 316 316 316 316 317 317 317 317 316 317 317 317 317 317 317 317 317 316 316 316 316 315 315 314 313 313 313 312 312 312 311 311 310 310 309 309
315 316 314 312 313 313 314 316 318 318 312 312 312 310 316 323 321 318 315 316 317 315 319 322 319 317 316 317 320 315 318 323 321 321 319 312 310 311 312 312 313 313 315 317 317 317 317 316 316 316 316 316 316 316 316 316 316 317 317 317 317 317 317 317 317 317 316 317 316 316 315 315 315 314 313 313 312 312 312 312 311 311 310 310 310 309
313 312 312 313 312 313 317 318 317 319 316 314 316 314 316 317 317 318 316 314 318 319 319 319 318 322 323 318 316 315 318 319 318 322 318 310 311 314 313 313 314 313 314 316 317 317 317 316 316 316 316 315 315 316 316 316 316 316 316 317 316 317 317 316 316 316 316 317 316 316 316 315 314 314 313 313 313 313 312 312 311 311 310 310 310 309
314 312 315 317 316 316 318 315 313 317 317 315 316 316 317 316 316 317 315 313 315 316 320 319 314 321 328 320 316 319 319 313 310 311 312 311 314 315 314 316 316 315 315 316 316 317 316 316 316 316 315 315 315 316 316 316 316 316 316 317 316 317 317 316 316 316 317 317 316 317 316 315 315 314 314 313 313 313 312 312 312 311 311 310 310 310
312 316 321 321 318 318 315 310 307 311 315 315 315 316 317 316 315 318 319 317 315 312 315 317 315 318 321 315 314 316 312 308 307 307 310 314 315 316 317 317 317 317 316 316 316 317 316 316 316 315 315 315 315 316 316 316 316 316 316 316 316 317 316 317 317 316 317 316 316 316 316 316 315 314 314 314 313 313 312 312 312 311 311 311 310 310
311 317 319 318 319 319 317 313 308 308 312 315 317 317 317 316 319 325 324 320 318 316 315 315 315 317 317 311 307 307 306 308 310 311 313 316 317 317 318 317 317 317 316 316 316 316 316 316 316 315 315 315 316 316 315 316 316 316 316 316 316 317 317 317 317 317 317 316 316 316 316 316 316 315 315 314 313 313 312 312 311 311 311 311 310 310
312 316 317 316 319 319 318 319 317 314 314 316 318 317 317 319 320 320 318 314 316 320 319 318 316 317 320 318 311 311 312 311 310 312 314 316 317 317 317 316 316 315 316 316 315 315 316 315 315 315 315 315 315 315 315 316 316 316 316 316 316 317 316 317 316 316 316 316 316 316 316 316 316 315 315 314 313 313 312 312 311 311 311 311 311 311
313 317 316 315 316 315 316 317 318 317 315 315 318 317 316 318 318 316 316 316 316 318 318 317 316 314 316 318 316 318 319 315 311 313 315 314 315 317 317 316 316 315 315 315 315 315 315 315 315 315 315 315 315 315 316 316 316 316 316 316 316 316 316 316 316 316 316 316 316 316 316 316 315 315 315 314 314 313 312 312 311 311 311 311 311 311
319 318 314 313 313 313 313 315 319 321 318 316 318 318 316 316 316 316 318 318 316 317 316 314 315 314 314 316 317 319 322 322 316 312 314 315 315 316 316 315 315 315 315 315 315 315 315 315 315 315 315 315 315 315 316 316 316 316 316 316 315 315 315 315 315 315 315 315 315 315 315 315 315 315 315 315 314 313 313 312 312 311 311 310 310 310
322 317 313 314 313 312 312 316 319 320 319 318 317 317 316 315 315 316 317 316 316 317 316 313 314 314 314 316 319 321 323 323 315 310 313 316 315 315 316 315 315 314 314 315 314 315 315 315 315 315 315 315 315 315 316 316 316 316 315 315 315 314 314 313 313 314 314 314 314 314 314 314 314 315 314 314 314 314 313 312 312 311 311 310 310 310
318 315 313 314 313 312 313 318 320 318 317 318 316 316 316 315 315 316 315 315 316 315 315 314 316 316 313 313 317 318 316 315 313 312 313 314 314 315 314 314 314 314 314 314 314 314 314 314 315 315 315 315 315 315 315 315 315 315 314 314 313 313 312 312 312 312 312 312 312 312 313 313 314 314 314 314 314 314 313 312 312 311 311 311 310 310
314 318 317 314 312 313 313 317 320 318 317 317 316 315 315 314 314 315 315 315 315 315 315 315 316 316 313 312 314 313 311 310 311 312 312 312 313 313 313 313 314 313 314 314 314 314 314 314 315 315 315 315 315 315 315 314 314 313 313 313 312 312 312 312 312 311 311 311 311 311 311 312 312 312 313 313 313 313 313 312 312 312 311 311 311 310
312 319 319 314 313 314 313 315 318 318 316 317 316 315 314 314 314 314 314 315 314 314 315 315 315 315 312 311 311 311 311 310 310 310 310 312 313 312 312 313 313 313 314 314 314 314 314 314 315 314 314 314 314 314 313 313 313 313 312 312 312 312 312 312 312 312 311 311 311 311 311 311 311 311 311 311 312 312 312 312 312 312 312 311 311 310
313 317 317 315 315 316 315 315 315 313 313 314 315 315 314 313 314 313 313 314 314 315 315 315 315 314 312 311 310 309 309 308 308 309 311 312 312 311 311 312 313 313 313 313 314 314 314 314 314 313 313 313 312 312 312 312 312 312 312 312 312 312 312 312 312 312 312 311 311 311 311 311 311 311 311 311 311 311 311 311 311 311 311 311 310 310
315 316 318 318 317 316 316 316 313 312 312 313 314 314 313 312 313 313 313 313 313 314 315 315 314 314 313 312 312 312 310 308 309 310 311 311 311 311 311 312 313 313 313 313 313 313 313 313 312 312 312 312 311 311 312 312 312 311 312 311 311 311 311 311 311 311 311 311 311 311 311 311 311 311 311 311 311 311 311 311 311 311 310 310 310 309
316 316 317 317 317 317 316 314 313 313 314 315 313 312 312 312 312 312 312 313 313 313 313 314 313 313 313 313 314 315 313 310 310 311 311 311 311 311 312 312 312 313 312 313 312 312 312 311 311 311 311 311 311 311 311 311 311 311 311 311 311 310 310 310 310 310 310 311 311 311 311 311 311 311 311 311 311 311 311 311 311 310 310 310 309 309
316 315 316 316 317 317 315 313 314 315 315 315 314 314 312 311 312 313 312 312 312 312 312 313 313 313 312 311 311 311 311 310 310 311 311 311 311 312 312 311 312 312 311 311 311 311 311 310 311 311 311 311 311 310 310 310 310 310 310 310 309 309 309 309 309 309 309 309 309 310 310 310 310 310 310 310 310 310 310 310 310 310 310 309 309 309
316 315 315 317 318 318 316 314 315 317 318 316 317 316 313 312 312 312 312 312 312 312 312 312 312 312 311 309 309 310 310 310 309 309 310 310 311 311 311 311 311 310 310 310 310 310 310 310 310 310 310 310 310 309 309 309 309 308 308 308 308 307 308 308 308 308 308 308 308 308 309 309 309 309 309 309 310 310 310 310 310 310 309 309 309 309
314 315 315 317 317 316 316 315 315 317 318 317 317 317 314 313 313 313 313 313 312 311 311 311 312 312 311 310 310 310 309 308 309 307 307 309 310 310 310 310 309 309 309 309 310 310 310 309 309 309 308 308 308 308 308 307 307 307 306 306 306 306 306 306 306 306 306 306 307 307 308 308 308 309 309 309 309 309 309 309 309 309 309 309 309 309
313 315 314 315 316 315 316 316 315 317 317 315 316 317 313 311 312 313 313 315 314 311 309 310 312 312 311 309 307 307 308 310 312 309 307 308 309 308 309 309 308 309 309 308 308 308 308 308 307 307 307 307 306 306 306 306 306 305 305 305 305 305 305 305 305 305 305 305 306 306 307 307 308 308 308 309 309 309 309 309 309 309 309 309 309 309
313 314 315 315 315 316 316 316 316 317 316 316 319 320 314 310 310 312 313 316 315 311 308 309 311 310 309 307 304 306 310 314 314 310 307 307 307 307 307 308 308 308 308 307 307 307 307 307 306 306 306 306 306 306 305 305 305 304 304 304 304 304 304 304 304 304 304 304 304 305 305 305 306 307 307 308 308 308 308 308 308 308 308 308 308 308
311 313 314 314 315 316 316 316 316 316 317 321 323 319 312 309 311 315 317 317 313 310 309 310 309 309 309 307 305 308 312 314 313 310 307 306 306 306 307 307 307 307 307 306 306 306 306 306 305 305 305 305 305 305 304 304 304 303 303 303 303 303 303 302 302 303 303 303 303 303 303 304 304 304 304 305 306 306 306 307 307 307 307 307 307 307
311 311 313 314 315 315 316 317 316 316 320 324 319 310 308 310 315 317 318 316 312 310 312 311 311 311 310 307 306 309 311 310 311 310 308 306 306 305 306 306 306 306 306 305 305 305 305 304 304 304 303 303 303 303 303 302 302 302 302 301 301 301 301 301 301 301 301 301 301 301 302 302 303 303 303 303 303 304 304 305 305 305 306 306 306 306
314 313 313 314 314 315 315 316 316 317 320 320 313 307 308 314 318 316 314 311 310 310 311 311 311 311 310 308 308 309 308 308 309 309 307 305 305 305 305 305 305 305 305 305 304 304 303 302 302 302 302 301 301 301 301 300 300 300 300 300 300 300 299 299 299 299 299 299 299 300 300 300 301 301 302 302 302 303 303 303 304 304 304 304 305 304
315 315 314 314 314 315 315 316 317 318 317 313 310 310 311 314 316 314 309 306 308 309 310 309 309 309 309 308 308 307 307 307 306 306 305 305 305 305 305 304 305 304 304 304 303 302 302 301 301 300 300 300 300 299 299 299 299 299 299 298 298 298 298 298 298 298 298 298 298 298 298 299 299 300 300 301 302 302 303 303 303 303 303 303 303 303
315 316 316 315 315 316 316 317 317 315 313 311 312 314 313 312 312 312 309 306 305 307 307 307 308 308 309 308 306 305 306 305 304 304 304 304 304 304 304 304 303 303 302 302 301 301 301 300 299 299 299 299 298 298 298 298 298 297 297 297 297 296 296 296 296 296 296 296 297 297 297 297 298 298 299 300 301 302 302 303 303 303 303 303 302 302
314 313 314 315 315 314 314 314 312 307 307 309 310 311 311 310 310 311 311 309 307 307 307 308 307 307 308 308 306 305 304 304 303 304 303 303 303 303 303 302 302 301 301 301 300 300 299 299 299 298 298 298 297 297 297 296 296 296 296 296 296 296 296 295 295 295 295 295 296 296 296 296 297 297 297 299 300 301 302 302 303 303 303 303 302 302
310 307 309 313 314 311 309 308 306 304 304 306 306 307 309 309 309 310 311 310 309 308 308 308 307 307 307 307 306 305 304 304 304 303 303 303 303 302 302 301 301 300 300 299 299 298 298 298 298 297 297 296 296 296 296 295 295 295 295 295 295 295 295 295 295 295 295 295 295 296 296 296 296 296 296 297 299 300 301 302 302 302 303 303 303 302
309 306 309 313 314 314 312 308 305 304 304 304 305 306 306 307 308 308 310 310 308 307 306 306 306 306 306 306 306 305 304 304 303 303 302 302 302 301 301 300 299 299 299 298 298 298 297 297 297 296 296 295 295 295 294 294 294 294 294 294 294 294 294 294 294 294 294 295 295 295 295 296 296 296 296 296 297 298 299 300 301 302 302 302 302 302
310 308 311 313 312 311 310 305 302 302 302 302 304 305 305 306 307 307 307 308 306 305 304 305 305 305 305 305 305 305 304 303 303 303 302 301 301 300 299 299 298 298 298 297 297 297 296 296 295 295 294 294 294 294 293 293 293 293 293 292 292 292 292 292 292 293 293 293 294 294 294 295 295 295 296 296 296 297 298 299 300 301 301 301 301 301
309 308 310 310 309 307 306 302 301 303 304 303 303 304 304 305 305 305 305 305 304 304 304 303 304 304 304 304 304 304 304 303 302 302 301 300 299 299 298 298 297 297 297 297 296 296 295 295 294 294 293 293 293 292 292 292 292 291 291 291 291 291 291 291 291 291 291 291 292 292 293 293 294 295 295 295 295 296 296 298 299 300 300 300 300 300
308 310 309 308 309 310 309 305 304 307 308 305 303 303 303 303 303 304 304 304 304 304 304 303 303 302 302 302 303 303 303 301 300 299 299 299 298 298 297 297 297 297 297 296 296 295 294 293 293 293 292 292 291 291 291 291 290 290 290 290 290 290 290 290 290 290 290 290 290 290 291 291 292 293 294 295 295 295 295 296 297 298 299 300 300 299
307 309 309 309 311 311 309 306 304 306 308 306 304 303 303 303 304 304 303 304 304 303 303 303 303 301 301 301 301 300 301 300 299 298 298 297 297 297 296 296 296 296 296 295 294 293 293 292 292 291 291 291 290 290 290 290 290 290 290 290 289 289 289 289 289 289 289 289 289 290 290 290 291 292 293 294 294 294 295 295 296 297 298 299 299 299
Wind_Speed
4 4 3 5 7 8 8 6 6 5 7 8 6 5 4 4 3 3 2 5 1 4 4 4 5 8 11 11 16 26 21 15 21 25 28 32 33 35 36 37 35 34 32 28 26 26 25 25 25 24 23 23 23 22 22 22 22 21 21 23 24 24 25 26 28 28 29 30 30 31 31 32 32 32 32 32 31 31 31 32 32 30 33 37 36 35
4 5 7 7 8 7 6 7 7 7 7 6 6 6 2 2 3 2 1 4 3 1 3 3 3 9 11 11 16 23 17 16 23 24 28 33 34 37 38 36 33 31 30 26 25 24 23 24 23 23 22 22 22 21 22 22 21 21 22 22 22 23 25 26 27 29 30 30 30 31 30 30 31 31 32 32 31 31 32 32 33 33 33 35 35 35
2 4 8 7 6 7 6 5 8 7 7 5 4 6 3 2 2 3 3 4 5 0 3 5 5 9 11 10 15 21 18 22 28 24 26 30 32 38 36 30 27 26 25 22 19 17 17 18 18 18 18 17 18 18 19 20 19 20 21 21 21 22 23 25 26 28 29 30 30 31 31 30 30 31 31 32 32 32 33 33 34 35 35 36 38 40
3 5 6 7 9 9 6 4 8 7 5 4 4 5 3 2 1 1 3 4 4 2 1 3 5 8 8 6 12 21 23 25 27 24 28 30 32 37 32 25 24 23 22 18 13 11 10 12 12 12 13 13 14 14 15 16 16 17 17 17 18 19 21 23 25 27 29 30 30 30 31 31 31 31 32 33 34 34 34 35 35 35 36 37 39 41
5 5 4 10 7 8 7 4 7 7 2 1 3 6 4 3 4 3 1 2 3 4 3 4 5 7 5 5 7 11 11 14 17 17 22 24 24 26 24 20 19 19 18 15 10 8 7 8 8 8 9 9 10 9 10 10 12 13 14 15 16 17 18 20 22 25 27 29 30 30 31 32 33 33 34 35 35 36 35 36 37 37 37 36 37 38
4 2 7 9 4 6 8 5 6 7 3 1 3 6 7 7 7 3 2 4 4 4 4 4 3 6 5 5 7 6 6 8 10 10 18 23 17 13 11 9 9 10 9 8 6 5 5 5 6 6 6 6 6 5 5 6 8 10 11 13 14 15 16 18 20 22 24 27 28 29 30 31 33 34 35 35 35 35 35 35 36 37 38 37 37 38
2 1 5 7 6 7 7 4 5 6 6 2 4 5 7 7 8 6 4 4 1 2 3 4 2 5 7 5 8 7 8 11 12 11 21 28 19 10 8 8 7 4 1 1 1 3 4 5 5 5 5 5 5 5 5 5 6 7 9 10 12 14 15 16 18 20 22 24 26 28 29 30 32 33 33 33 33 34 35 35 35 36 37 38 39 39
1 3 5 6 7 6 6 4 5 6 8 3 3 6 8 8 8 6 6 4 2 3 4 4 3 2 6 7 7 6 7 10 12 12 18 22 17 10 8 6 4 2 3 4 5 6 7 7 8 8 8 7 7 6 5 5 5 6 8 8 10 12 13 14 16 17 19 21 23 25 27 29 30 31 31 31 32 33 34 35 36 36 37 39 40 40
1 4 4 5 6 4 4 4 5 8 6 3 3 7 7 7 7 5 6 4 1 1 4 4 2 2 6 7 5 4 5 9 11 11 12 16 15 8 3 2 4 6 6 8 9 9 10 10 10 10 9 8 7 6 5 5 5 5 6 7 8 9 11 13 14 16 18 20 22 23 25 27 27 28 28 30 31 32 33 35 35 36 37 38 39 40
2 2 4 6 6 4 3 1 3 5 3 5 7 8 6 6 6 5 5 4 3 2 5 5 2 2 5 7 4 2 3 7 9 8 9 13 13 4 3 5 8 10 10 11 11 11 11 11 11 10 9 8 6 5 3 2 2 3 4 6 7 8 9 11 13 15 17 18 21 22 23 24 25 25 27 28 30 31 32 33 34 35 36 36 38 38
2 1 1 3 3 5 5 4 2 2 6 11 8 7 7 6 5 4 3 4 3 3 6 6 3 1 3 6 4 3 4 6 5 6 8 9 9 4 7 9 12 14 13 12 11 10 10 10 10 9 8 6 5 4 3 1 0 1 2 3 4 5 7 9 11 13 15 17 19 21 21 22 22 24 25 27 29 30 31 31 32 32 34 35 37 37
4 3 1 1 1 5 7 6 5 5 7 9 5 5 5 4 4 4 4 3 1 5 6 5 2 2 4 6 5 5 7 6 5 5 7 8 9 6 11 14 17 17 14 13 12 12 12 11 9 8 7 7 7 6 5 4 4 3 3 3 4 5 6 7 9 11 13 15 17 19 20 20 21 22 24 26 27 28 29 30 30 30 32 33 35 37
3 1 2 3 1 4 6 5 5 5 4 5 5 6 5 2 2 2 3 0 3 6 4 3 1 2 6 7 8 10 10 8 8 8 9 9 8 7 15 18 19 18 14 14 15 14 13 11 9 9 9 9 9 8 8 8 7 6 6 5 6 6 7 8 10 11 12 13 15 16 18 19 20 21 23 25 26 27 28 29 29 29 30 31 32 34
1 4 3 2 2 5 5 6 4 1 0 4 5 5 4 3 2 2 4 2 4 4 3 3 2 3 5 5 8 13 10 7 8 11 12 12 8 4 13 18 19 17 15 16 16 14 12 11 10 10 9 9 9 9 9 9 9 8 8 8 8 8 8 10 11 12 13 13 13 15 16 17 19 21 22 24 25 26 27 28 28 28 28 28 29 31
4 4 4 3 2 5 5 4 6 6 3 3 3 5 5 5 5 4 4 3 4 3 3 4 2 3 3 3 7 12 13 13 13 14 12 12 10 2 8 14 17 16 15 17 16 14 12 11 10 9 8 8 8 8 8 7 8 9 9 9 9 9 9 11 12 14 15 15 15 16 16 17 18 19 21 23 24 25 26 27 28 28 27 27 27 28
4 4 4 2 1 6 5 2 4 7 3 2 2 5 3 4 5 3 3 5 3 1 2 2 3 5 4 5 9 10 12 14 15 14 10 9 10 6 5 10 15 14 14 16 16 15 14 14 14 13 12 11 9 8 6 5 5 6 6 7 8 10 10 11 12 14 16 17 17 18 18 18 18 19 21 22 23 24 25 27 27 27 27 26 26 26
3 3 5 4 2 2 1 1 3 3 3 2 3 3 5 4 7 5 2 1 3 1 3 1 4 5 4 6 9 7 8 11 12 12 12 10 8 9 8 11 16 14 12 16 16 16 17 17 16 15 14 13 11 10 8 6 5 4 3 3 7 9 11 13 14 15 17 17 18 18 19 20 20 21 21 22 22 23 24 26 27 27 27 27 26 26
5 1 4 2 1 2 2 3 5 4 3 5 3 5 4 2 4 4 2 2 4 3 4 1 5 5 2 4 7 5 5 10 9 10 14 14 11 9 8 12 16 13 13 16 17 17 17 16 15 14 13 11 11 9 8 7 7 7 6 6 8 10 13 15 16 16 17 18 19 19 19 20 21 22 22 22 22 23 24 26 26 27 28 28 27 27
5 2 4 2 2 3 4 3 3 5 4 4 5 4 4 3 2 2 2 2 1 3 4 4 4 4 4 5 5 2 6 8 9 9 11 14 13 9 7 10 12 13 16 17 18 18 17 15 14 12 12 11 10 9 7 7 7 8 8 9 10 11 13 15 16 17 17 18 19 20 20 21 22 23 23 23 23 24 25 26 26 26 27 27 28 28
4 3 3 2 1 2 3 1 4 1 3 4 3 3 3 2 4 3 3 4 3 3 3 4 4 3 6 6 6 9 9 8 8 7 7 12 14 10 8 10 11 13 17 18 18 19 17 14 11 10 11 11 10 9 8 7 6 8 9 10 10 11 12 13 15 16 17 18 20 21 21 21 22 23 23 23 24 25 26 26 26 26 26 27 28 29
3 3 4 2 3 1 2 3 6 7 5 3 3 4 2 1 2 2 1 2 4 4 3 2 4 6 6 4 8 10 9 8 8 6 7 11 12 9 6 5 5 7 12 17 19 18 16 13 7 7 10 10 10 9 8 7 6 7 9 10 10 10 11 12 14 15 17 19 20 21 22 22 23 23 23 23 24 26 26 26 27 27 26 27 28 28
3 3 5 2 0 4 4 3 4 6 6 6 6 7 7 4 4 3 2 1 2 3 4 3 4 8 6 4 7 7 7 7 7 7 8 8 6 3 1 3 3 4 10 16 18 17 16 13 6 4 9 10 10 10 9 8 8 8 10 11 12 12 13 14 15 16 18 20 22 23 23 22 23 22 22 23 24 25 26 26 27 27 27 28 28 28
4 4 5 3 4 5 4 3 1 2 2 2 4 5 6 5 5 6 5 3 2 1 2 4 2 8 5 4 6 6 6 5 6 8 6 2 2 3 4 5 3 4 10 14 16 16 15 12 6 2 8 10 11 12 12 12 12 12 13 14 14 15 15 15 17 18 21 23 24 25 24 23 22 22 22 22 23 24 25 25 26 26 27 28 28 28
4 4 4 1 3 3 4 4 4 2 2 1 4 3 5 4 4 5 5 4 4 3 3 3 2 7 4 1 4 8 8 5 4 8 5 6 7 8 10 11 9 9 9 9 11 12 10 8 5 5 8 10 10 13 14 15 16 16 15 14 14 15 15 17 18 21 24 26 26 26 26 25 23 22 21 21 22 23 23 23 24 25 27 27 28 28
6 2 4 3 2 3 4 4 3 2 2 4 4 3 5 5 6 4 2 3 2 5 7 5 5 8 4 3 3 6 6 3 4 7 7 8 9 10 13 13 13 12 10 8 6 5 3 4 5 6 8 10 13 15 18 19 19 17 15 15 16 17 17 18 20 22 25 27 27 27 27 26 24 23 23 22 22 22 22 22 23 24 26 27 27 28
9 3 5 7 6 6 6 6 5 4 3 2 2 5 7 8 10 6 3 4 5 6 7 7 8 6 3 3 4 4 3 2 4 5 6 7 7 7 8 8 6 5 4 1 1 2 3 4 5 8 11 14 16 18 19 20 20 19 18 18 19 20 19 19 21 22 24 26 26 26 27 26 26 25 24 24 23 22 22 23 23 24 25 26 27 28
4 2 7 9 11 12 12 9 4 7 7 5 7 9 9 9 12 8 5 5 7 3 4 11 12 7 6 5 5 5 4 5 5 6 8 7 6 5 6 6 3 3 3 4 4 6 7 8 8 10 11 12 14 16 17 18 20 20 20 18 17 19 19 19 19 20 21 22 23 25 25 25 25 25 25 25 24 23 23 23 24 24 24 25 27 28
4 4 10 10 13 15 10 7 5 9 11 13 13 13 11 12 13 11 10 12 8 4 7 14 10 9 13 9 8 9 7 6 6 9 12 10 7 8 9 8 7 6 6 5 6 7 7 6 5 6 9 11 13 14 15 16 17 17 16 16 16 17 17 17 17 17 18 20 20 21 22 23 24 25 25 25 25 24 23 23 23 23 24 25 26 28
3 7 10 8 13 15 6 6 7 8 10 12 14 15 15 15 15 15 18 18 11 8 15 13 11 13 19 12 10 12 10 9 13 16 17 15 13 13 13 12 11 9 7 7 6 6 6 5 7 10 13 15 15 14 12 12 12 12 12 13 13 14 14 14 15 15 16 17 18 19 20 20 21 22 23 24 25 25 24 24 23 23 24 25 26 27
3 5 6 7 10 14 8 7 7 9 8 8 11 14 15 17 18 20 21 22 18 15 17 12 9 14 18 9 10 15 19 20 23 22 20 20 22 20 18 16 13 11 10 8 7 7 8 9 12 14 15 15 13 11 9 9 9 10 10 10 10 11 13 13 14 15 16 16 17 18 18 19 20 21 22 23 24 24 24 24 24 24 25 26 26 27
4 4 3 6 5 10 8 7 7 10 9 8 9 10 12 15 17 19 20 20 16 13 14 13 10 14 12 7 10 19 22 19 18 20 21 25 28 27 22 18 14 12 11 9 8 7 8 10 11 11 11 10 9 8 7 7 7 8 8 9 11 12 14 15 16 16 17 18 18 18 20 20 21 22 22 24 25 25 25 25 26 27 27 27 27 28
4 3 1 5 3 7 6 9 9 6 3 4 7 8 12 14 14 17 17 13 11 12 14 13 11 13 10 8 11 15 15 13 16 21 25 27 27 26 23 18 15 12 11 9 8 7 7 8 8 7 7 6 5 5 5 5 7 8 10 12 13 15 16 17 18 18 18 19 19 20 21 22 23 23 23 24 26 26 27 27 28 29 29 29 29 29
6 5 2 4 5 7 6 7 8 6 3 4 9 13 17 16 15 14 9 9 12 13 12 11 12 16 13 7 8 7 8 13 20 25 26 26 25 24 20 17 15 12 11 9 9 8 7 7 7 6 5 3 3 4 5 7 9 11 13 15 16 17 18 18 19 20 20 20 21 21 22 23 24 24 24 25 26 27 28 30 31 32 32 32 31 30
6 7 4 4 5 7 4 7 8 5 5 8 11 15 18 17 18 15 11 15 18 14 11 12 12 14 10 7 9 10 12 16 21 25 25 24 23 21 17 15 14 13 12 11 10 9 9 8 7 5 3 2 3 5 7 9 11 13 15 16 17 18 20 20 21 22 22 22 22 23 24 25 25 26 26 26 27 28 29 30 31 32 33 35 35 34
8 7 4 4 3 3 3 8 5 8 10 10 9 11 15 19 19 18 18 19 17 14 14 14 14 14 13 12 13 15 17 18 17 18 19 19 20 19 17 16 15 14 13 13 12 11 10 8 7 5 3 3 5 6 8 10 11 13 14 16 17 18 19 20 21 21 22 22 22 24 25 26 27 28 28 28 29 30 30 30 32 32 33 34 35 36
9 8 4 3 3 2 3 4 7 7 3 4 5 5 10 13 12 12 13 13 12 12 14 17 20 21 17 12 10 10 15 16 13 12 15 16 16 17 17 17 16 16 15 14 13 11 9 8 6 4 4 4 5 7 9 10 11 12 12 14 15 15 17 18 19 20 21 21 22 23 24 26 27 28 29 30 31 32 32 33 34 34 34 36 36 37
7 8 6 5 5 5 6 7 7 6 4 2 5 6 8 10 11 11 11 12 14 17 18 19 21 20 13 9 10 12 15 12 7 7 13 17 17 18 18 18 17 17 15 14 12 10 8 6 4 3 4 5 5 6 7 7 8 9 10 11 12 13 14 15 16 17 19 20 21 22 24 25 27 28 29 30 32 33 33 34 35 35 36 38 39 39
2 5 7 9 7 7 8 9 7 8 9 10 11 8 7 12 14 12 10 11 12 18 24 20 17 16 12 9 12 16 15 8 3 7 15 20 20 20 19 19 18 16 14 13 11 8 7 5 3 2 3 3 4 4 5 6 7 8 9 10 12 13 14 15 16 17 19 20 22 23 24 25 27 28 28 29 30 31 32 32 33 33 34 36 38 40
1 1 3 7 7 7 9 10 9 8 9 12 12 7 8 16 15 10 5 12 11 15 25 21 14 17 16 14 19 17 10 5 7 11 21 23 21 21 20 18 18 15 13 12 9 8 7 5 4 3 2 2 3 4 5 7 8 9 11 12 14 15 16 17 19 20 21 22 23 25 26 27 28 29 29 30 30 31 32 32 31 31 31 33 36 38
2 1 1 6 9 9 9 9 7 6 6 8 8 6 12 21 20 11 7 14 6 13 24 23 20 24 23 21 23 14 9 11 11 13 25 26 21 21 20 18 17 15 13 12 10 9 8 5 4 3 2 2 3 5 6 8 10 11 13 15 16 18 19 20 22 23 24 25 25 26 28 29 30 31 31 32 33 33 34 34 34 34 33 33 34 35
3 2 4 8 10 11 11 10 6 4 5 6 5 9 18 21 15 8 12 9 7 15 24 29 30 30 26 25 25 17 17 18 13 15 29 28 23 23 20 17 16 14 12 12 10 8 7 5 3 2 2 3 5 6 8 9 11 12 14 16 17 19 20 22 23 24 25 26 27 28 29 30 32 33 34 35 36 36 36 36 37 37 36 35 34 35
6 3 4 6 8 8 9 9 7 5 6 7 8 13 19 15 7 10 7 4 9 16 21 27 31 29 24 27 29 24 19 14 13 23 32 28 25 24 20 17 16 14 12 12 9 8 7 4 1 1 4 5 7 8 9 10 11 13 15 16 18 19 21 22 24 25 26 28 29 30 31 32 33 34 35 36 37 38 38 38 38 39 39 38 38 37
8 6 6 6 6 6 6 7 8 7 6 13 15 9 10 8 5 8 9 6 6 15 19 21 24 23 22 25 25 21 18 19 24 30 30 26 24 22 19 17 15 13 12 11 9 7 5 3 2 2 4 5 7 9 10 11 13 14 16 18 19 20 22 23 24 26 27 28 29 31 32 33 33 34 35 36 37 38 39 39 39 40 40 40 40 39
6 7 7 6 6 7 7 8 7 3 6 21 17 5 11 14 6 8 13 10 8 14 18 18 18 19 22 25 25 25 25 28 30 29 27 25 23 20 18 16 14 12 10 9 7 5 3 2 2 2 4 5 7 9 11 13 14 16 17 19 20 21 22 23 24 25 26 27 29 30 31 32 33 33 34 36 37 38 39 39 40 40 40 40 40 40
5 4 4 5 5 5 5 5 2 2 6 17 11 4 13 21 14 10 16 17 17 19 20 21 22 21 23 27 30 30 30 30 29 26 25 23 21 19 17 15 12 11 8 6 5 3 2 1 1 1 4 6 8 10 12 14 15 16 17 18 19 21 22 23 23 24 25 26 27 29 30 31 31 32 33 34 35 37 38 39 40 40 40 40 40 40
2 1 1 1 2 1 1 2 2 1 3 9 9 5 10 17 16 13 15 18 22 24 22 23 26 26 28 30 31 31 30 28 27 24 23 21 19 17 15 12 10 8 6 5 4 2 2 0 1 2 5 7 9 11 13 15 16 17 17 18 19 20 21 23 23 24 24 25 27 28 29 31 32 32 32 32 33 35 36 38 39 40 39 39 39 39
2 0 1 1 3 4 3 2 3 2 3 6 8 7 9 13 14 15 17 20 24 25 24 25 27 28 29 28 27 28 27 26 24 22 20 19 17 15 13 11 9 7 6 5 3 2 0 2 4 6 7 9 10 12 13 15 17 18 18 19 20 20 22 23 24 25 25 26 27 28 29 31 32 33 34 34 34 34 35 36 38 39 40 39 38 37
1 1 1 2 3 3 2 2 1 2 4 7 10 12 14 16 17 17 20 24 27 26 25 26 26 27 26 24 23 25 25 23 21 19 19 18 16 15 13 11 9 8 6 4 2 2 3 5 7 8 9 10 10 12 13 14 16 18 19 21 22 23 24 25 26 27 28 28 29 30 31 32 33 34 35 36 36 36 36 36 38 39 40 39 38 37
3 3 1 0 0 1 1 2 2 2 1 6 10 12 14 17 20 23 24 26 27 26 26 26 25 25 25 23 22 23 24 24 21 19 19 18 16 14 12 10 9 7 4 2 2 4 6 7 8 9 10 10 10 11 12 14 16 18 20 23 24 26 27 28 29 30 30 31 32 32 33 34 34 35 36 37 38 38 38 37 38 39 41 40 39 38
4 4 2 3 1 2 2 5 8 3 1 7 12 11 11 14 19 23 25 25 25 25 26 27 26 24 23 22 20 20 22 24 22 19 18 16 14 13 11 9 6 4 3 3 5 6 7 8 9 9 9 10 10 11 13 15 18 20 22 24 27 28 30 31 32 32 33 34 34 35 36 37 37 38 38 39 40 41 40 39 38 39 40 41 40 39
5 5 5 5 4 4 4 13 18 7 1 8 18 17 16 17 19 22 24 24 24 24 24 25 25 25 24 23 21 19 19 20 20 18 16 15 13 12 9 7 5 4 3 3 4 5 6 7 8 9 10 11 12 14 17 19 21 23 24 26 27 28 30 31 32 33 34 35 36 37 38 39 40 40 41 42 43 43 44 43 42 40 39 40 41 40
Wind_Direction
127 133 172 185 187 189 190 163 137 143 136 138 131 112 139 159 235 249 274 307 48 149 248 241 235 264 268 273 276 277 283 282 275 274 272 270 269 268 266 265 263 261 264 268 268 264 262 261 261 262 262 260 259 258 257 256 257 258 258 257 257 255 253 250 249 249 248 247 247 246 244 243 243 241 241 241 241 241 240 241 241 237 237 241 240 236
116 163 209 209 193 175 156 141 110 91 90 101 128 126 119 165 225 252 251 314 358 168 268 349 304 266 261 266 272 276 282 271 262 260 263 266 268 268 268 268 269 270 272 271 266 263 261 261 261 261 260 258 258 258 257 259 260 261 260 261 261 259 256 254 253 253 253 253 253 253 252 250 248 246 245 247 247 246 244 242 242 240 237 239 241 240
130 210 231 210 163 116 96 109 98 86 87 86 116 126 134 189 240 292 299 328 10 68 268 355 343 273 261 261 266 266 261 261 262 257 261 266 268 269 270 272 276 278 277 276 269 262 257 257 258 257 256 256 257 258 258 259 259 259 260 263 263 262 260 258 256 256 256 256 256 256 256 254 253 252 251 252 253 252 250 247 244 242 240 236 236 239
172 248 236 171 145 119 91 87 96 86 83 88 107 128 166 231 142 239 288 328 8 62 262 346 324 282 276 275 267 261 256 262 268 265 265 264 265 269 271 273 277 279 281 284 281 267 251 248 248 248 250 252 254 255 256 256 257 259 262 266 267 266 265 262 259 258 257 256 256 256 257 257 256 256 256 254 254 254 253 251 248 246 243 241 239 239
201 258 152 127 133 131 119 121 124 120 95 68 137 138 161 200 172 190 274 341 357 15 39 29 330 293 302 315 283 270 266 268 271 271 270 266 266 271 274 276 279 284 286 286 281 267 250 242 239 238 239 243 247 251 254 256 259 263 267 269 270 269 268 265 262 259 258 257 257 256 257 257 257 257 256 254 254 253 252 250 248 247 246 244 245 246
224 252 137 122 90 114 126 154 170 150 134 272 216 173 172 173 164 162 56 58 34 350 350 26 346 287 314 316 274 286 326 299 286 291 282 277 278 279 281 296 304 300 290 280 273 255 238 227 223 223 221 224 229 228 233 243 251 258 264 266 268 269 268 267 264 260 259 258 257 258 258 258 260 260 259 259 259 259 258 257 251 248 246 244 244 247
226 58 116 127 111 109 123 159 192 152 125 195 233 167 147 132 129 135 113 88 107 248 309 41 126 264 310 296 265 294 325 304 298 298 280 276 281 291 297 316 324 317 294 233 201 183 184 181 180 177 168 167 167 169 187 212 236 251 260 264 266 268 268 267 266 263 261 260 260 261 261 263 263 264 265 265 265 264 264 264 259 251 246 244 243 244
148 88 70 95 99 102 127 165 198 146 125 200 220 125 121 116 129 144 115 102 200 231 326 14 121 236 293 264 264 314 324 300 290 284 276 277 286 298 297 302 299 215 146 122 125 134 143 144 140 139 139 141 147 158 174 196 225 247 258 267 269 272 273 271 269 267 264 264 264 264 264 265 265 266 268 268 267 266 265 264 263 258 251 245 242 241
95 149 162 123 96 116 174 205 179 130 109 228 186 116 119 120 126 122 99 96 18 4 313 315 129 189 273 272 296 341 314 287 278 271 277 290 299 303 283 224 158 153 143 126 123 127 130 130 130 131 135 141 152 164 176 197 227 252 266 277 280 281 282 279 276 273 269 267 266 265 265 266 267 268 268 268 267 266 265 264 263 262 259 253 246 242
36 176 196 138 126 176 198 244 158 124 89 167 137 94 78 75 81 80 88 98 44 5 256 253 189 193 267 285 309 349 272 261 267 272 280 298 307 311 130 147 146 140 136 132 126 125 125 127 131 132 136 146 152 156 164 194 254 284 293 297 299 295 290 285 282 278 275 271 268 267 266 267 268 268 267 267 267 266 266 265 264 263 262 260 255 250
340 31 58 97 139 172 137 78 64 86 129 136 115 73 62 36 37 47 51 82 63 297 255 246 228 167 271 281 259 214 220 223 247 292 299 328 356 65 120 131 139 136 133 133 128 127 128 129 132 132 133 137 127 116 114 100 35 342 336 334 329 317 303 295 288 282 279 275 273 272 271 271 272 271 269 268 268 268 269 268 267 266 264 263 261 257
359 53 12 356 120 130 105 66 41 60 111 117 90 86 86 0 12 24 358 45 121 255 260 264 254 157 222 260 252 242 254 232 215 267 283 325 8 72 119 125 131 133 133 136 137 135 135 134 135 136 133 130 122 116 117 113 105 91 66 31 11 354 333 317 303 294 288 281 279 278 277 277 277 275 273 272 272 272 273 273 272 271 267 264 262 259
20 52 305 338 261 168 115 79 49 22 37 79 92 104 97 355 9 350 309 347 221 243 271 285 242 206 233 246 259 267 269 245 220 230 254 291 338 80 122 129 131 132 134 139 141 139 139 141 143 146 144 136 126 123 126 123 113 98 78 55 34 14 356 342 328 316 304 295 290 287 284 282 281 279 277 276 277 276 276 276 275 273 271 267 262 259
304 310 309 60 274 222 162 126 129 238 225 133 135 130 129 127 111 260 264 277 261 257 297 295 249 260 269 261 252 253 260 264 255 255 264 284 311 77 130 140 139 137 138 141 141 139 141 146 149 150 149 141 131 128 130 129 120 105 87 69 48 26 8 354 344 336 325 314 304 294 289 285 282 281 280 280 279 279 279 278 276 276 273 269 264 260
181 274 229 170 211 199 182 169 152 144 146 177 160 131 146 157 157 205 216 211 246 272 305 298 256 201 223 277 258 257 276 288 284 282 279 275 278 233 147 155 155 148 142 142 140 139 139 135 130 127 123 123 124 125 129 132 128 115 98 77 52 28 10 354 346 342 337 329 317 304 296 291 286 284 282 281 281 281 281 280 280 279 277 273 269 264
166 247 255 299 298 159 170 209 129 108 106 233 118 107 160 183 143 140 182 177 178 316 302 261 238 214 216 280 280 283 299 293 284 290 287 265 252 235 197 177 171 160 149 148 145 141 134 118 107 101 94 90 89 93 100 112 125 123 107 78 41 18 4 352 341 335 334 333 325 315 308 301 295 290 286 285 284 284 284 284 283 282 281 279 275 269
153 258 303 353 10 96 129 206 107 113 173 170 126 171 211 171 114 113 212 54 80 250 271 229 253 288 323 295 291 307 305 294 291 291 282 266 240 230 226 190 177 172 163 161 156 146 132 116 107 99 90 81 76 75 74 74 80 88 90 48 13 1 353 345 337 329 326 326 326 323 315 307 302 298 294 291 288 287 286 284 284 285 284 283 280 275
154 193 319 35 115 340 9 84 58 43 110 125 174 206 189 122 88 109 183 1 44 244 275 271 245 286 322 277 315 345 273 276 290 286 281 277 256 234 216 184 176 177 181 179 168 152 137 120 107 94 81 70 65 66 65 61 55 52 42 15 360 352 345 338 332 326 321 321 322 322 318 312 305 300 298 296 292 289 286 284 285 286 286 286 285 282
141 140 312 15 157 306 357 96 75 12 51 123 174 168 122 141 172 101 149 179 134 234 278 299 276 264 207 230 301 295 219 237 259 267 275 273 264 246 210 191 188 192 198 192 172 156 143 124 104 82 64 53 48 46 43 40 38 38 25 8 358 348 341 335 329 326 321 319 319 318 317 314 309 304 300 298 296 291 288 287 287 287 287 288 287 285
143 149 254 309 248 304 13 130 193 207 39 61 103 106 85 134 166 161 154 166 170 195 250 307 321 268 225 215 213 222 222 214 228 249 262 265 270 267 241 233 227 213 206 193 171 159 151 133 106 68 47 39 35 29 17 6 12 20 11 2 355 344 337 332 329 326 321 318 316 314 314 313 311 308 303 299 297 294 292 291 289 287 288 288 286 286
140 165 208 309 337 218 197 217 190 168 146 124 131 158 184 83 111 158 142 123 140 159 192 277 297 267 248 207 192 217 234 220 211 230 265 278 291 295 272 249 234 212 201 190 178 169 163 153 124 53 28 19 19 17 7 356 354 358 356 351 344 336 330 324 321 319 315 313 312 310 311 311 310 309 307 302 298 297 297 295 293 291 290 289 287 286
152 168 169 138 280 205 224 256 188 175 173 169 180 189 184 158 125 153 233 230 121 148 169 177 257 264 252 205 200 213 222 222 213 221 258 286 307 324 77 106 111 158 180 187 187 181 175 169 153 36 8 0 0 359 356 352 345 339 337 333 325 320 315 311 310 309 308 307 305 306 307 307 308 310 309 306 301 299 299 299 299 297 294 292 291 289
121 111 124 154 220 214 242 287 207 194 159 145 210 204 173 164 142 153 204 220 126 164 157 122 251 273 261 196 207 228 242 252 226 210 229 308 57 87 96 99 97 144 172 187 192 187 181 178 183 311 341 346 345 340 338 338 335 330 325 320 316 312 306 302 302 302 303 303 301 302 303 304 307 310 310 308 305 302 301 301 301 299 297 295 295 292
122 116 128 201 302 310 311 335 19 51 85 182 243 186 156 182 151 143 178 173 156 191 156 105 264 271 279 212 235 260 279 294 213 185 151 87 83 87 92 96 95 106 127 151 168 175 180 194 226 284 319 331 332 331 333 335 335 331 326 323 319 314 306 300 298 299 300 300 299 299 298 300 302 305 307 307 306 304 303 301 299 297 297 296 295 294
178 166 130 124 12 349 333 337 336 294 197 207 225 163 156 148 110 106 129 113 189 215 165 157 238 252 269 333 312 293 310 320 193 168 126 99 91 92 96 96 96 100 103 113 136 154 188 234 265 296 318 327 329 330 331 331 331 330 328 324 318 313 308 302 299 298 299 298 297 296 295 297 300 303 306 306 305 304 303 300 297 295 295 295 294 294
179 188 146 156 180 197 208 213 221 212 178 195 198 166 173 157 144 162 138 123 230 224 159 185 236 241 258 314 313 312 327 266 204 167 138 120 108 113 121 113 105 113 123 126 25 350 324 312 315 320 324 325 324 324 324 323 323 323 322 319 314 311 309 307 303 301 299 297 296 296 296 300 305 306 306 306 306 305 302 300 298 295 294 295 294 293
146 203 189 193 201 205 210 208 165 126 141 201 205 179 181 181 175 171 134 171 212 176 168 221 231 233 240 247 259 262 241 233 223 182 176 166 144 162 175 168 179 219 245 274 302 312 311 314 315 316 320 322 322 321 319 317 316 314 315 314 313 312 312 313 311 306 303 301 300 300 302 305 306 305 304 305 305 304 303 302 302 299 298 297 295 293
89 214 208 208 218 223 217 198 166 142 167 198 199 185 186 188 181 177 193 210 193 134 235 232 208 229 243 220 220 244 235 237 241 216 214 218 210 212 214 215 229 246 258 275 285 292 299 303 307 321 328 326 323 318 314 311 308 307 310 313 314 316 318 320 320 315 312 312 310 309 309 307 305 304 303 304 303 303 304 303 302 301 299 297 294 294
110 213 212 199 224 239 218 161 179 176 181 199 197 191 191 187 183 191 210 219 191 181 238 230 166 210 241 222 206 230 228 232 245 243 244 249 244 235 232 236 245 252 258 268 277 284 296 306 317 325 322 317 312 307 303 301 302 307 311 315 319 323 326 329 329 327 324 322 319 317 313 310 308 306 305 304 304 304 305 304 302 301 298 296 295 294
152 215 213 178 220 246 223 166 182 186 187 207 203 195 191 189 193 200 212 222 211 208 237 236 184 221 243 221 199 228 234 238 249 254 257 258 252 247 242 242 248 253 256 264 270 280 295 305 312 312 307 302 296 293 295 296 302 312 315 320 326 328 330 332 331 331 331 331 329 324 318 314 311 310 309 308 307 306 307 305 304 301 298 297 296 294
185 220 193 142 204 256 230 186 197 196 193 209 212 202 195 195 202 210 217 222 218 220 242 248 243 251 250 194 201 234 236 235 243 247 249 252 251 248 244 244 246 247 250 255 259 271 287 293 297 294 285 282 279 281 291 298 305 315 318 322 326 325 327 328 327 329 329 330 331 327 324 322 320 320 318 316 314 311 310 308 305 303 301 299 298 297
184 217 66 113 183 252 226 189 195 187 167 230 239 216 201 200 208 215 218 218 208 209 229 240 248 256 244 184 205 231 223 214 229 236 240 245 246 244 242 240 238 235 234 236 240 251 262 262 261 259 253 255 266 278 291 301 310 315 318 322 323 323 324 323 323 324 323 324 325 322 321 322 321 322 322 320 318 315 314 312 310 308 305 302 301 299
167 177 153 142 188 247 239 175 158 123 96 251 243 219 206 206 213 216 220 227 215 204 213 222 229 242 241 198 201 223 193 203 226 234 239 241 238 236 236 230 224 220 216 218 220 221 224 223 223 224 227 238 264 293 307 314 319 319 319 321 320 319 320 320 320 321 319 320 319 316 317 317 316 317 317 316 316 316 315 316 314 312 310 308 305 302
176 185 194 167 187 239 220 118 110 140 197 228 227 213 207 207 210 210 210 218 217 207 210 222 231 246 246 196 198 218 209 214 229 235 237 237 230 224 217 209 207 204 200 201 198 195 195 194 198 203 211 244 282 306 316 317 318 318 315 315 316 315 317 318 318 318 317 318 317 315 314 313 311 312 312 312 312 311 312 312 312 311 311 309 306 304
181 192 194 174 190 224 136 107 144 213 222 231 226 208 207 212 211 209 214 222 219 209 218 234 245 250 239 215 216 227 223 222 227 228 225 223 220 214 202 194 193 191 188 185 180 178 177 176 182 196 218 262 290 300 307 308 308 309 308 308 311 312 313 314 314 315 316 317 317 316 315 314 313 312 311 310 309 308 308 308 307 307 307 305 303 302
181 186 184 183 185 172 123 159 214 236 240 239 239 208 204 214 210 208 230 245 233 214 216 225 235 240 235 223 224 225 214 206 201 201 199 196 198 199 196 191 184 180 178 172 169 170 170 175 189 214 245 275 292 294 299 302 304 308 309 310 313 315 314 315 316 318 320 320 320 319 319 318 316 316 315 313 311 310 309 308 307 307 307 305 302 301
187 186 190 206 201 205 220 217 233 275 306 239 228 217 199 193 181 187 224 243 228 216 214 218 232 240 235 218 207 191 177 171 175 189 182 177 179 184 185 181 174 171 170 165 166 169 169 177 198 231 264 282 297 298 303 309 311 315 318 317 319 322 323 325 327 328 329 330 328 326 324 322 320 320 320 318 316 314 312 310 309 309 308 306 304 303
198 195 193 208 209 203 226 236 237 248 246 231 228 225 194 181 177 176 206 235 233 218 212 216 231 236 228 203 181 167 155 156 228 212 182 177 178 177 173 170 168 167 166 164 163 163 165 174 187 211 257 280 301 311 318 324 323 323 325 325 327 331 333 335 337 337 338 337 336 334 331 328 325 324 323 322 321 318 315 313 311 309 308 306 305 305
76 26 175 217 218 196 215 232 227 226 237 234 233 226 171 167 153 124 183 240 247 213 204 208 219 229 228 195 169 158 150 193 246 210 184 178 174 169 168 168 167 165 164 162 157 156 162 167 177 197 235 262 292 317 330 332 333 332 332 333 335 337 338 338 339 339 339 338 337 336 334 332 330 329 327 325 324 322 319 317 313 310 309 307 306 305
156 62 174 219 222 210 213 226 229 234 237 229 232 219 167 153 133 113 220 245 235 179 190 197 208 226 226 192 169 165 184 217 239 205 181 174 168 167 169 169 167 165 162 162 160 159 161 161 175 202 238 271 305 333 338 336 338 338 335 336 338 338 339 339 339 338 337 335 334 333 332 331 330 329 329 327 326 325 324 323 319 314 310 307 305 303
178 168 197 213 223 220 219 227 240 250 231 220 216 185 159 143 136 180 229 229 150 158 185 197 206 222 219 186 173 189 210 222 234 191 173 170 167 168 169 168 168 166 161 162 159 153 152 151 166 219 305 326 333 340 338 336 339 339 337 337 337 337 338 338 337 336 334 333 332 331 331 330 329 328 328 327 326 325 325 326 324 319 313 307 303 300
186 182 190 205 219 222 225 232 238 251 233 193 161 161 158 151 184 218 205 145 153 170 183 194 204 215 210 191 189 199 203 203 189 170 167 168 168 167 166 168 168 165 161 160 155 151 150 143 129 319 332 340 341 339 340 341 342 340 337 335 334 335 336 335 333 332 331 331 330 329 329 329 329 328 327 326 325 323 323 325 325 324 320 313 307 302
184 184 193 198 200 206 233 228 220 249 222 152 134 143 177 187 208 182 149 118 171 182 180 188 199 204 197 190 189 186 175 164 161 161 161 163 165 165 166 168 167 164 163 160 158 161 158 136 100 351 342 346 345 340 341 342 339 337 336 334 333 333 332 331 330 328 328 328 327 327 327 326 326 327 326 326 325 324 324 325 325 325 324 319 313 308
189 190 197 204 194 195 218 215 207 261 174 155 149 172 209 208 214 170 165 162 162 172 173 174 181 190 190 182 171 162 158 154 154 155 157 159 162 163 164 165 164 163 164 163 164 167 157 132 102 12 341 341 344 340 337 336 333 332 332 331 330 329 328 328 328 327 327 327 326 326 325 324 324 325 325 326 326 325 325 325 325 325 324 322 318 312
216 204 184 193 197 197 218 218 220 328 176 177 190 235 201 205 219 201 184 178 166 168 171 164 160 167 175 171 160 152 152 152 153 157 158 158 161 163 162 163 164 165 166 167 166 161 153 143 97 18 329 329 338 336 333 332 330 328 329 329 327 327 327 327 327 326 327 327 326 326 325 324 324 324 324 324 324 323 324 324 323 323 323 322 319 316
271 322 63 154 197 224 250 193 165 320 209 198 222 240 195 200 207 198 190 183 170 167 167 162 156 154 156 158 153 150 152 155 156 159 160 161 162 164 164 165 167 167 168 167 166 163 159 162 346 332 320 324 331 332 332 331 328 328 328 327 326 325 324 324 323 324 324 323 323 323 323 322 322 323 322 322 321 320 320 320 319 319 319 318 318 316
312 269 97 162 182 188 215 203 159 191 216 192 196 198 183 183 188 189 188 179 168 162 160 157 153 151 153 155 154 153 156 160 160 160 161 162 164 165 168 170 170 174 179 180 189 206 235 322 319 318 320 324 327 330 332 329 327 326 325 324 323 322 321 321 320 320 321 320 319 319 319 319 319 319 319 319 318 317 316 316 315 314 314 314 314 313
262 99 98 235 207 177 215 267 147 150 191 182 173 173 171 170 171 173 172 166 160 156 155 155 155 156 157 159 161 161 160 163 167 167 166 168 171 172 173 174 176 182 189 195 217 280 313 318 318 319 322 324 327 329 330 327 326 326 325 326 326 324 324 324 322 321 320 319 318 317 316 316 315 316 316 316 315 315 314 313 312 310 310 311 311 310
118 121 138 194 206 54 321 256 174 103 199 209 192 179 173 167 163 160 160 159 157 156 157 159 161 164 164 163 167 169 166 166 172 175 174 174 175 175 176 178 181 186 200 231 283 313 317 316 319 320 320 325 329 330 330 329 327 328 329 328 326 325 325 324 322 321 321 319 319 318 316 315 314 313 313 313 312 312 311 310 310 308 308 308 308 307
140 172 164 104 151 251 245 188 174 138 351 222 209 195 177 166 160 156 157 159 162 164 166 165 164 167 168 165 167 171 171 168 170 173 175 176 177 180 183 186 191 203 238 281 303 314 315 316 321 321 323 329 331 329 330 329 327 327 327 324 323 323 323 322 321 322 322 322 322 321 319 317 315 313 312 311 311 310 309 307 306 305 305 305 305 304
189 196 174 163 204 238 196 179 183 180 57 202 200 195 183 177 173 168 165 167 169 170 172 173 170 169 169 166 165 171 174 172 172 175 178 180 183 185 188 192 201 223 257 279 293 303 307 312 317 319 322 326 327 328 329 327 326 325 324 323 323 323 322 322 323 322 323 323 322 322 321 319 318 316 314 312 311 310 309 307 305 303 302 302 302 302